Location: Navalmoral
(40.4603°N, 4.7686°W)
Time: 16:56:24
(UTC+00:00)

Daily predictions for brighter satellites

Satellite Brightness Start Highest point End
(mag) Time Altitude Azimuth Time Altitude Azimuth Time Altitude Azimuth
IGS 5A 3.6 20:21:19 10° S 20:25:27 77° W 20:29:37 10° NNW
Cosmos 1300 4.2 20:23:08 10° NNE 20:26:01 20° ENE 20:28:53 10° SE
OBJECT-B 3.4 20:27:16 10° SW 20:29:14 17° W 20:31:15 10° NW
Cosmos 1943 Rocket 3.1 20:23:56 10° NW 20:29:19 47° WSW 20:34:39 10° S
Cosmos 1908 3.2 20:25:51 10° N 20:29:43 78° E 20:33:33 10° S
Cosmos 405 Rocket 3.8 20:30:08 10° SSW 20:34:01 51° WNW 20:37:57 10° N
Cosmos 1943 3.2 20:28:47 10° S 20:34:22 64° ESE 20:39:58 10° NNE
Sich 1 Rocket 4.1 20:31:01 10° NNW 20:35:32 64° W 20:40:03 10° S
Cosmos 1953 2.7 20:33:11 10° N 20:36:59 45° E 20:40:46 10° SSE
Cosmos 1603 3.8 20:32:47 10° S 20:38:20 60° ESE 20:43:59 10° NNE
Resurs 1-3 4.1 20:35:11 10° S 20:39:31 62° W 20:43:52 10° NNW
Lacrosse 5 4.4 20:38:02 10° NNW 20:40:37 14° NNE 20:43:12 10° NE
Cosmos 1745 Rocket 4.4 20:35:16 10° N 20:41:07 44° ENE 20:46:57 10° SSE
Cosmos 1975 Rocket 4.4 20:40:07 10° SE 20:43:32 22° E 20:46:57 10° NE
Intercosmos 25 4.0 20:43:12 10° NNW 20:46:18 43° W 20:49:30 10° SSW
Ariane Rocket 3.3 20:42:38 10° SSE 20:47:36 55° ENE 20:52:34 10° N
CARTOSAT-1 4.4 20:44:35 11° SE 20:48:18 35° ENE 20:52:14 10° N
X-37B 2.5 20:48:30 10° S 20:48:55 11° SSE 20:48:55 11° SSE
H-2A R/B 2.3 20:45:30 10° N 20:49:52 77° WNW 20:54:18 10° SSW
USA 308 3.1 20:47:31 10° NW 20:51:38 61° SW 20:55:11 13° SSE
USA 305 3.4 20:47:46 10° WNW 20:51:46 48° SW 20:55:21 12° SSE
Resurs 01 Rocket 1.6 20:47:35 10° SSE 20:52:00 85° ENE 20:56:29 10° N
Cosmos 292 Rocket 4.4 20:49:46 10° SSW 20:54:27 60° WNW 20:59:10 10° NNE
Lacrosse 4 Rocket 2.0 20:50:21 10° SW 20:54:28 59° WNW 20:58:32 10° NNE
Okean 2 Rocket 4.0 20:51:16 10° NNW 20:55:33 47° W 20:59:47 10° SSW
Tiangong 1.0 20:53:06 10° WSW 20:56:14 62° SSE 20:59:23 10° E
IRAS Rocket 4.3 20:50:52 10° NNE 20:56:27 61° ESE 21:01:56 10° S
Cosmos 2151 Rocket 4.5 20:54:44 10° NNW 20:59:06 50° W 21:03:27 10° SSW
DELTA 2 R/B (1) 3.6 20:53:40 10° W 20:59:16 77° S 21:04:45 11° ESE
FALCON 9 DEB 3.3 21:00:07 10° WSW 21:03:20 69° NW 21:06:36 10° NE
Terra 3.4 21:02:52 12° ESE 21:05:51 21° ENE 21:09:25 10° NNE
CZ-3 Stage 3 4.3 21:00:18 10° W 21:05:53 18° SW 21:08:17 11° S
Meteor 1-24 Rocket 4.3 21:06:09 15° SSE 21:09:57 34° E 21:14:44 10° NNE
Cosmos 2315 Rocket 4.4 21:05:13 11° SSE 21:11:02 47° E 21:17:02 10° NNE
USA 267 3.2 21:06:24 10° NE 21:12:54 65° SE 21:19:23 10° SW
Cosmos 1455 4.2 21:11:17 10° NE 21:13:26 14° ENE 21:14:42 13° E
Cosmos 2369 Rocket 2.7 21:09:10 10° NNW 21:14:37 55° WSW 21:19:53 11° S
Cosmos 1371 Rocket 4.5 21:11:05 12° SSE 21:15:31 40° ESE 21:20:24 10° NE
SL-24 R/B 4.0 21:12:36 16° SSE 21:16:00 82° ENE 21:20:22 10° N
Longmarch 3A Rocket 3.9 21:14:54 10° S 21:15:28 11° S 21:15:28 11° S
Spot 2 Rocket 4.1 21:15:27 18° SE 21:18:50 43° ENE 21:23:39 10° N
ERBS 2.1 21:16:55 10° NW 21:19:54 63° SW 21:21:15 28° SSE
ATLAS 3B CENTAUR R/B 4.4 21:09:14 10° W 21:21:23 37° SSW 21:27:49 18° SSE
ARIANE 5 R/B 4.1 21:23:37 17° ESE 21:25:46 24° ENE 21:29:18 10° NNE
SPOT 3 Rocket 3.5 21:22:41 18° SSE 21:26:36 81° ENE 21:31:49 10° NNW
Cosmos 2084 4.1 21:26:52 26° SE 21:27:15 26° ESE 21:30:30 10° ENE
Lacrosse 5 rocket 3.6 21:25:42 10° NNW 21:28:15 17° NNE 21:30:52 10° ENE
CZ-4B R/B 3.3 21:26:41 10° NNW 21:29:10 26° WNW 21:31:37 10° SW
Cosmos 1709 Rocket 4.0 21:24:49 10° N 21:30:59 68° E 21:35:24 20° SSE
Meteor 2-12 Rocket 4.4 21:25:44 10° N 21:31:50 90° E 21:36:41 17° S
Cosmos 2251 Rocket 3.7 21:27:04 10° NNW 21:32:23 70° WSW 21:36:18 19° S
Cosmos 1624 Rocket 4.0 21:32:53 14° S 21:37:15 59° ESE 21:42:22 10° NNE
ATLAS 2AS CENTAUR R/B 3.8 21:33:24 10° NNW 21:39:48 34° NE 21:44:51 14° E
GENESIS II 4.4 21:37:56 10° NNW 21:41:59 63° NE 21:43:39 32° SE
Cosmos 1190 Rocket 4.3 21:39:44 10° NNW 21:44:59 58° ENE 21:47:39 28° SE
USA 234 4.4 21:39:28 10° E 21:45:23 37° NNE 21:51:18 10° NW
NOSS 3-4 (A) 4.0 21:38:33 10° NW 21:45:44 78° WSW 21:51:03 24° SSE
NOSS 3-4 (C) 4.0 21:38:39 10° NW 21:45:49 79° WSW 21:51:05 24° SSE
USA 245 4.2 21:45:08 19° S 21:48:56 64° WSW 21:53:23 10° NNW
Atlas Centaur 2 3.0 21:47:54 10° SW 21:50:05 17° SSW 21:50:05 17° SSW
Meteor 2-10 Rocket 4.1 21:45:57 10° NNW 21:50:50 52° W 21:54:29 17° SSW
Cosmos 407 Rocket 3.5 21:46:57 10° NNW 21:52:09 81° WSW 21:54:51 29° S
Cosmos 1455 Rocket 3.0 21:48:12 10° N 21:52:33 79° W 21:54:41 29° S
SPOT 5 2.6 21:52:00 30° SSE 21:54:15 87° W 21:58:41 10° NNW
Cosmos 2056 Rocket 3.5 21:52:03 13° SSW 21:56:53 89° ESE 22:02:20 10° NNE
Meteor 2-5 Rocket 3.9 21:53:58 13° SSW 21:58:59 71° W 22:04:31 10° N
Cosmos 1025 Rocket 3.4 21:57:08 19° SSW 22:00:05 62° W 22:04:20 10° N
Cosmos 1271 Rocket 3.2 21:56:34 10° N 22:00:27 48° ENE 22:01:15 41° ESE
ERS-1 Rocket 3.0 22:04:36 31° S 22:07:03 77° WSW 22:12:07 10° NNW
USA 32 4.1 22:04:44 24° S 22:07:58 78° W 22:13:13 10° N
Cosmos 1420 Rocket 3.9 22:05:26 20° SSW 22:09:11 89° WNW 22:14:29 10° NNE
Cosmos 676 Rocket 4.2 22:06:13 10° NNW 22:11:29 60° ENE 22:13:24 37° SE
Cosmos 1607 4.0 22:08:10 10° SW 22:14:25 79° WNW 22:20:39 10° NNE
Cosmos 1536 Rocket 3.6 22:13:48 48° SE 22:14:37 58° E 22:18:52 10° NNE
Cosmos 1140 Rocket 4.2 22:10:32 10° NNW 22:15:28 45° WSW 22:17:57 26° SSW
CZ-2C R/B 4.3 22:16:38 10° N 22:21:09 56° WNW 22:23:59 21° SW
Helios 1A Rocket 3.9 22:19:57 29° SW 22:21:22 40° W 22:25:13 10° NNW
Lacrosse 5 3.2 22:20:22 10° NNW 22:25:01 34° NE 22:27:55 19° E
Cosmos 724 4.1 22:24:23 25° SSW 22:27:52 77° ESE 22:33:41 10° NE
SAR-Lupe-4 3.7 22:26:07 10° NNE 22:29:20 58° ENE 22:29:20 58° ENE
Cosmos 2184 Rocket 3.9 22:25:25 10° N 22:31:35 71° E 22:33:50 41° SSE
Cosmos 1954 Rocket 4.0 22:27:39 10° NNW 22:32:57 81° WSW 22:34:28 47° S
TSX-5 4.1 22:33:04 54° ESE 22:33:05 54° ESE 22:38:00 10° NE
Tiangong 1.8 22:29:57 10° W 22:32:27 50° WNW 22:32:27 50° WNW
Meteor 1-21 Rocket 4.4 22:35:49 45° SE 22:37:01 54° E 22:42:28 10° NNE
CSL-04 DEB 4.4 22:33:50 10° NNE 22:38:11 86° ESE 22:38:53 62° S
Cosmos 1703 3.0 22:38:48 82° E 22:38:48 82° E 22:42:40 10° N
Cosmos 2228 3.2 22:36:52 10° N 22:41:01 52° E 22:41:10 52° E
Terra 2.7 22:41:45 31° SW 22:43:19 40° W 22:47:49 10° NNW
Cosmos 1544 Rocket 4.4 22:39:36 10° NNW 22:43:39 41° W 22:44:45 34° SW
SAR-Lupe-1 4.2 22:41:38 10° N 22:45:12 69° WNW 22:45:12 69° WNW
DELTA 2 R/B (1) 4.1 22:40:13 10° W 22:45:24 40° SSW 22:45:29 40° SSW
ALOS 2 4.4 22:46:37 18° ENE 22:47:16 19° ENE 22:50:20 10° NNE
Cosmos 1455 3.3 22:45:34 10° NNW 22:49:01 34° W 22:49:28 33° WSW
Molniya-1 4.4 22:50:49 46° S 22:52:18 74° ESE 23:03:39 10° NE
Cosmos 1726 Rocket 4.5 22:49:40 10° N 22:53:36 35° ENE 22:53:36 35° ENE
USA 267 4.4 22:49:38 10° NE 22:55:42 42° NNW 23:01:46 10° W
Cosmos 1980 Rocket 4.3 22:52:13 10° N 22:56:03 18° NE 22:59:14 12° E
Cosmos 1331 Rocket 4.1 22:57:22 54° ESE 22:57:45 55° ESE 23:02:56 10° NNE
RESURS DK-1 3.7 22:55:04 10° N 22:58:41 28° ENE 22:59:03 28° ENE
Cosmos 1452 Rocket 3.5 22:57:19 48° SSW 22:58:50 81° WNW 23:04:08 10° NNE
Cosmos 1697 Rocket 3.8 22:55:45 10° N 23:00:54 35° ENE 23:02:42 28° E
ARIANE 5 R/B 3.8 23:01:09 30° WSW 23:02:01 32° W 23:06:04 10° NNW
Spot 4 4.3 23:04:25 46° E 23:04:56 48° ENE 23:09:31 10° N
Lacrosse 5 rocket 1.4 23:03:44 10° NW 23:07:17 71° NW 23:07:17 71° NW
NOSS 2-1 (C) 4.1 23:03:02 10° NW 23:07:55 89° SW 23:09:23 54° SSE
ADEOS Rocket 4.1 23:05:35 29° ESE 23:08:23 41° ENE 23:15:14 10° N
ASTEX 1 3.3 23:05:54 10° N 23:10:55 87° W 23:11:35 68° SSW
Cosmos 1110 Rocket 3.9 23:15:12 66° SSW 23:15:58 89° ESE 23:21:17 10° NNE
Meteor 2-1 Rocket 4.0 23:10:37 10° N 23:16:08 86° ENE 23:17:01 65° SSE
Cosmos 2058 Rocket 4.0 23:12:49 10° N 23:16:43 36° ENE 23:16:43 36° ENE
NOSS 2-1 (D) 4.2 23:13:21 10° NW 23:18:18 76° WSW 23:19:29 58° S
Cosmos 1892 Rocket 3.6 23:22:22 70° ENE 23:22:22 70° ENE 23:26:28 10° NNE
GP-B 3.0 23:18:46 10° N 23:23:05 84° NNE 23:23:05 84° NNE
Cosmos 1833 Rocket 2.6 23:26:16 57° SW 23:27:27 83° WNW 23:33:06 10° NNE
Cosmos 1656 3.6 23:22:18 10° NNW 23:27:44 68° WSW 23:28:19 62° SSW
USA 234 3.1 23:26:11 51° SSE 23:28:02 77° SW 23:34:37 10° NW
ATLAS 2AS CENTAUR R/B 2.8 23:24:15 10° NW 23:31:00 54° WSW 23:32:16 48° SSW
Okean 1-7 Rocket 4.5 23:39:49 39° ENE 23:39:49 39° ENE 23:43:20 10° NNE
Cosmos 2082 Rocket 2.4 23:41:32 52° ESE 23:41:34 53° ESE 23:47:06 10° NNE
Cosmos 962 Rocket 4.4 23:37:14 10° N 23:43:27 80° W 23:44:40 60° SSW
Cosmos 1741 Rocket 4.3 23:41:59 10° NNW 23:47:08 52° WSW 23:47:22 52° WSW
BREEZE-M DEB (TANK) 4.2 23:40:28 10° WSW 23:54:27 73° NNW 23:58:20 10° NE
